Weather History for Havre, MT

Change the Weather History Date:

Thursday, April 3, 2014

  Actual Average Record
Temperature  
Mean Temperature 37 °F 40 °F  
Max Temperature 49 °F 53 °F 77 °F (1992)
Min Temperature 24 °F 28 °F -7 °F (1936)
Degree Days  
Heating Degree Days 28 25  
Month to date heating degree days 90 75  
Since 1 July heating degree days 7493 7193  
Cooling Degree Days 0 0  
Month to date cooling degree days 0 0  
Year to date cooling degree days 0 0  
Moisture  
Dew Point 27 °F    
Average Humidity 70    
Maximum Humidity 100    
Minimum Humidity 39    
Precipitation  
Precipitation 0.00 in 0.03 in 1.09 in (1955)
Month to date precipitation 0.00 0.07  
Year to date precipitation 1.80 1.22  
Snow  
Snow 0.00 in 0.10 in 15.00 in (1955)
Month to date snowfall 0.0 0.5  
Since 1 July snowfall 44.4 34.7  
Snow Depth 0.00 in    
Sea Level Pressure  
Sea Level Pressure 30.02 in    
Wind  
Wind Speed 5 mph (WSW)    
Max Wind Speed 12 mph    
Max Gust Speed 14 mph    
Visibility 8 miles    
Events      
T = Trace of Precipitation, MM = Missing Value Source: NWS Daily Summary

Daily Weather History Graph

Daily Weather History Graph

Search for Another Location

Airport:

Trip Planner

Search our weather history database for the weather conditions in past years. The results will help you decide how hot, cold, wet, or windy it might be!

Date:

Astronomy

Apr. 03, 2014 Rise Set
Actual Time 6:52 AM MDT 7:52 PM MDT
Civil Twilight 6:20 AM MDT 8:24 PM MDT
Nautical Twilight 5:42 AM MDT 9:03 PM MDT
Astronomical Twilight 5:01 AM MDT 9:44 PM MDT
Moon 9:08 AM MDT (4/3) No Moon Set
Length of Visible Light 14h 04m
Length of Day
13h 00m
Waxing Crescent, 18% of the Moon is Illuminated
Apr 3
Waxing Crescent
Apr 7
First Quarter
Apr 15
Full
Apr 22
Last Quarter
Apr 29
New

Hourly Weather History & Observations

Time (MDT) Temp. Windchill Dew Point Humidity Pressure Visibility Wind Dir Wind Speed Gust Speed Precip Events Conditions
12:53 AM 28.9 °F - 27.0 °F 92% 29.99 in 10.0 mi Calm Calm - N/A   Partly Cloudy
1:10 AM 28.9 °F - 27.0 °F 92% 29.93 in 10.0 mi Calm Calm - N/A   Mostly Cloudy
1:15 AM 28.9 °F - 27.0 °F 92% 29.93 in 10.0 mi Calm Calm - N/A   Mostly Cloudy
1:24 AM 28.9 °F 25.2 °F 28.0 °F 96% 29.93 in 10.0 mi SSW 3.5 mph - N/A   Overcast
1:53 AM 30.0 °F 25.2 °F 28.0 °F 92% 30.00 in 9.0 mi West 4.6 mph - N/A   Mostly Cloudy
2:08 AM 28.0 °F 20.8 °F 26.1 °F 92% 29.93 in 8.0 mi SW 6.9 mph - N/A   Mostly Cloudy
2:24 AM 28.0 °F 20.8 °F 26.1 °F 92% 29.94 in 8.0 mi SSW 6.9 mph - N/A   Mostly Cloudy
2:34 AM 28.9 °F 22.8 °F 28.0 °F 96% 29.93 in 9.0 mi South 5.8 mph - N/A   Mostly Cloudy
2:53 AM 30.0 °F 24.1 °F 28.9 °F 96% 30.00 in 8.0 mi SW 5.8 mph - N/A   Overcast
3:11 AM 30.9 °F 24.3 °F 30.0 °F 96% 29.94 in 6.0 mi SW 6.9 mph - N/A   Overcast
3:31 AM 30.0 °F 21.7 °F 28.9 °F 96% 29.94 in 1.5 mi WSW 9.2 mph - N/A   Overcast
3:34 AM 30.0 °F 22.4 °F 28.9 °F 96% 29.94 in 0.8 mi WSW 8.1 mph - N/A   Overcast
3:53 AM 30.0 °F 24.1 °F 28.9 °F 96% 30.01 in 1.0 mi WSW 5.8 mph - N/A   Mist
3:57 AM 30.0 °F 24.1 °F 28.9 °F 96% 29.95 in 2.0 mi WSW 5.8 mph - N/A   Overcast
4:05 AM 28.9 °F 22.8 °F 28.9 °F 100% 29.96 in 5.0 mi WSW 5.8 mph - N/A   Overcast
4:17 AM 28.9 °F 22.8 °F 28.0 °F 96% 29.96 in 7.0 mi West 5.8 mph - N/A   Overcast
4:53 AM 28.0 °F 20.8 °F 27.0 °F 96% 30.04 in 9.0 mi WSW 6.9 mph - N/A   Overcast
5:42 AM 26.1 °F 17.6 °F 24.1 °F 92% 29.98 in 10.0 mi WSW 8.1 mph - N/A   Scattered Clouds
5:53 AM 25.0 °F 18.1 °F 24.1 °F 96% 30.06 in 10.0 mi WSW 5.8 mph - N/A   Clear
6:24 AM 26.1 °F 17.6 °F 24.1 °F 92% 30.00 in 10.0 mi WSW 8.1 mph - N/A   Mostly Cloudy
6:53 AM 27.0 °F 18.7 °F 26.1 °F 96% 30.08 in 10.0 mi WNW 8.1 mph - N/A   Overcast
7:11 AM 27.0 °F 21.6 °F 26.1 °F 96% 30.02 in 3.0 mi West 4.6 mph - N/A   Overcast
7:19 AM 28.0 °F 21.7 °F 26.1 °F 92% 30.03 in 1.8 mi WNW 5.8 mph - N/A   Overcast
7:30 AM 28.0 °F 22.8 °F 27.0 °F 96% 30.03 in 1.0 mi Variable 4.6 mph - N/A   Overcast
7:48 AM 28.4 °F 24.6 °F 28.4 °F 100% 30.03 in 1.8 mi West 3.5 mph - N/A   Overcast
7:53 AM 28.9 °F 25.2 °F 28.0 °F 96% 30.11 in 2.0 mi West 3.5 mph - N/A   Overcast
8:03 AM 28.9 °F 21.9 °F 28.0 °F 96% 30.04 in 5.0 mi WNW 6.9 mph - N/A   Overcast
8:53 AM 30.0 °F 26.5 °F 28.0 °F 92% 30.13 in 9.0 mi NW 3.5 mph - N/A   Overcast
9:16 AM 30.0 °F 26.5 °F 28.0 °F 92% 30.05 in 9.0 mi West 3.5 mph - N/A   Overcast
9:53 AM 30.9 °F 27.5 °F 28.0 °F 89% 30.14 in 9.0 mi NNE 3.5 mph - N/A   Overcast
10:53 AM 32.0 °F 27.5 °F 28.0 °F 85% 30.14 in 10.0 mi WNW 4.6 mph - N/A   Overcast
11:53 AM 35.1 °F 29.3 °F 28.0 °F 76% 30.14 in 10.0 mi WNW 6.9 mph - N/A   Mostly Cloudy
12:08 PM 36.0 °F 33.3 °F 28.0 °F 73% 30.06 in 10.0 mi Variable 3.5 mph - N/A   Scattered Clouds
12:53 PM 39.0 °F - 28.0 °F 65% 30.12 in 10.0 mi Calm Calm - N/A   Mostly Cloudy
1:53 PM 44.1 °F - 26.1 °F 49% 30.09 in 10.0 mi Calm Calm - N/A   Clear
2:53 PM 46.0 °F - 25.0 °F 44% 30.07 in 10.0 mi Calm Calm - N/A   Clear
3:53 PM 46.9 °F - 25.0 °F 42% 30.04 in 10.0 mi East 3.5 mph - N/A   Clear
4:53 PM 48.0 °F - 25.0 °F 41% 30.04 in 10.0 mi North 3.5 mph - N/A   Clear
5:53 PM 48.9 °F - 26.1 °F 41% 30.03 in 10.0 mi SSE 3.5 mph - N/A   Clear
6:53 PM 46.9 °F - 27.0 °F 46% 30.02 in 10.0 mi East 5.8 mph - N/A   Clear
7:53 PM 41.0 °F 34.7 °F 28.0 °F 60% 30.01 in 10.0 mi East 10.4 mph - N/A   Clear
9:53 PM 37.0 °F 33.3 °F 28.0 °F 70% 29.99 in 10.0 mi East 4.6 mph - N/A   Mostly Cloudy
10:53 PM 41.0 °F 37.1 °F 26.1 °F 55% 29.96 in 10.0 mi SE 5.8 mph - N/A   Clear
11:53 PM 36.0 °F 33.3 °F 26.1 °F 67% 29.94 in 10.0 mi Variable 3.5 mph - N/A   Clear